Time,TemperatureF,DewpointF,PressureIn,WindDirection,WindDirectionDegrees,WindSpeedMPH,WindSpeedGustMPH,Humidity,HourlyPrecipIn,Conditions,Clouds,dailyrainin,SoftwareType,DateUTC
2013-01-20 00:09:00,40.0,35.0,29.91,WSW,242,6.0,-999.0,82,-99.99,,,0.00,weatherlink.com 1.10,2013-01-20 05:09:00,
2013-01-20 00:24:00,39.9,35.0,29.91,WSW,254,8.0,-999.0,82,-99.99,,,0.00,weatherlink.com 1.10,2013-01-20 05:24:00,
2013-01-20 00:39:00,40.6,35.0,29.92,NNW,335,8.0,-999.0,80,-99.99,,,0.00,weatherlink.com 1.10,2013-01-20 05:39:00,
2013-01-20 00:54:00,40.7,34.0,29.92,West,271,17.0,-999.0,76,-99.99,,,0.00,weatherlink.com 1.10,2013-01-20 05:54:00,
2013-01-20 01:09:00,40.6,33.0,29.93,West,276,13.0,-999.0,73,-99.99,,,0.00,weatherlink.com 1.10,2013-01-20 06:09:00,
2013-01-20 01:24:00,39.9,32.0,29.95,WSW,255,8.0,-999.0,73,-99.99,,,0.00,weatherlink.com 1.10,2013-01-20 06:24:00,
2013-01-20 01:39:00,38.9,28.0,29.94,WNW,282,27.0,-999.0,65,-99.99,,,0.00,weatherlink.com 1.10,2013-01-20 06:39:00,
2013-01-20 01:54:00,37.9,27.0,29.96,West,277,11.0,-999.0,66,-99.99,,,0.00,weatherlink.com 1.10,2013-01-20 06:54:00,
2013-01-20 02:09:00,36.9,28.0,29.98,West,265,10.0,-999.0,70,-99.99,,,0.00,weatherlink.com 1.10,2013-01-20 07:09:00,
2013-01-20 02:24:00,35.3,26.0,30.00,NW,304,9.0,-999.0,70,-99.99,,,0.00,weatherlink.com 1.10,2013-01-20 07:24:00,
2013-01-20 02:40:00,33.8,24.0,30.01,West,270,14.0,-999.0,67,-99.99,,,0.00,weatherlink.com 1.10,2013-01-20 07:40:00,
2013-01-20 02:55:00,33.1,20.0,30.02,West,278,5.0,-999.0,60,-99.99,,,0.00,weatherlink.com 1.10,2013-01-20 07:55:00,
2013-01-20 03:10:00,32.1,20.0,30.04,WNW,293,20.0,-999.0,61,-99.99,,,0.00,weatherlink.com 1.10,2013-01-20 08:10:00,
2013-01-20 03:25:00,31.0,19.0,30.05,WNW,294,6.0,-999.0,61,-99.99,,,0.00,weatherlink.com 1.10,2013-01-20 08:25:00,
2013-01-20 03:40:00,30.2,18.0,30.06,WNW,302,9.0,-999.0,61,-99.99,,,0.00,weatherlink.com 1.10,2013-01-20 08:40:00,
2013-01-20 03:55:00,29.6,19.0,30.07,WSW,250,13.0,-999.0,65,-99.99,,,0.00,weatherlink.com 1.10,2013-01-20 08:55:00,
2013-01-20 04:10:00,28.8,17.0,30.07,WNW,294,9.0,-999.0,62,-99.99,,,0.00,weatherlink.com 1.10,2013-01-20 09:10:00,
2013-01-20 04:25:00,27.8,15.0,30.09,West,263,6.0,-999.0,59,-99.99,,,0.00,weatherlink.com 1.10,2013-01-20 09:25:00,
2013-01-20 04:40:00,27.1,14.0,30.10,WNW,293,14.0,-999.0,57,-99.99,,,0.00,weatherlink.com 1.10,2013-01-20 09:40:00,
2013-01-20 04:55:00,26.9,15.0,30.10,NW,311,5.0,-999.0,60,-99.99,,,0.00,weatherlink.com 1.10,2013-01-20 09:55:00,
2013-01-20 05:10:00,26.5,16.0,30.11,WNW,300,9.0,-999.0,65,-99.99,,,0.00,weatherlink.com 1.10,2013-01-20 10:10:00,
2013-01-20 05:25:00,26.0,15.0,30.12,WNW,283,8.0,-999.0,64,-99.99,,,0.00,weatherlink.com 1.10,2013-01-20 10:25:00,
2013-01-20 05:40:00,25.2,14.0,30.12,WNW,299,12.0,-999.0,63,-99.99,,,0.00,weatherlink.com 1.10,2013-01-20 10:40:00,
2013-01-20 05:55:00,24.3,14.0,30.13,WNW,298,14.0,-999.0,65,-99.99,,,0.00,weatherlink.com 1.10,2013-01-20 10:55:00,
2013-01-20 06:10:00,24.2,15.0,30.14,NW,305,8.0,-999.0,67,-99.99,,,0.00,weatherlink.com 1.10,2013-01-20 11:10:00,
2013-01-20 06:25:00,23.7,15.0,30.15,West,281,19.0,-999.0,70,-99.99,,,0.00,weatherlink.com 1.10,2013-01-20 11:25:00,
2013-01-20 06:40:00,22.2,13.0,30.16,NW,311,8.0,-999.0,67,-99.99,,,0.00,weatherlink.com 1.10,2013-01-20 11:40:00,
2013-01-20 06:55:00,21.8,13.0,30.18,NW,321,8.0,-999.0,69,-99.99,,,0.00,weatherlink.com 1.10,2013-01-20 11:55:00,
2013-01-20 07:11:00,21.5,13.0,30.18,NW,307,4.0,-999.0,70,-99.99,,,0.00,weatherlink.com 1.10,2013-01-20 12:11:00,
2013-01-20 07:26:00,21.1,12.0,30.19,West,281,9.0,-999.0,69,-99.99,,,0.00,weatherlink.com 1.10,2013-01-20 12:26:00,
2013-01-20 07:41:00,20.8,13.0,30.20,NNW,329,9.0,-999.0,71,-99.99,,,0.00,weatherlink.com 1.10,2013-01-20 12:41:00,
2013-01-20 07:56:00,20.2,12.0,30.20,WNW,283,12.0,-999.0,70,-99.99,,,0.00,weatherlink.com 1.10,2013-01-20 12:56:00,
2013-01-20 08:11:00,20.0,12.0,30.20,WNW,289,5.0,-999.0,72,-99.99,,,0.00,weatherlink.com 1.10,2013-01-20 13:11:00,
2013-01-20 08:26:00,19.7,13.0,30.21,West,267,11.0,-999.0,74,-99.99,,,0.00,weatherlink.com 1.10,2013-01-20 13:26:00,
2013-01-20 08:56:00,19.3,12.0,30.24,WNW,292,7.0,-999.0,72,-99.99,,,0.00,weatherlink.com 1.10,2013-01-20 13:56:00,
2013-01-20 09:11:00,19.5,12.0,30.24,WNW,293,5.0,-999.0,71,-99.99,,,0.00,weatherlink.com 1.10,2013-01-20 14:11:00,
2013-01-20 09:26:00,19.8,12.0,30.25,West,273,5.0,-999.0,72,-99.99,,,0.00,weatherlink.com 1.10,2013-01-20 14:26:00,
2013-01-20 09:41:00,20.4,12.0,30.26,West,281,7.0,-999.0,70,-99.99,,,0.00,weatherlink.com 1.10,2013-01-20 14:41:00,
2013-01-20 09:56:00,20.6,12.0,30.27,NW,305,8.0,-999.0,69,-99.99,,,0.00,weatherlink.com 1.10,2013-01-20 14:56:00,
2013-01-20 10:11:00,20.1,11.0,30.27,NW,311,4.0,-999.0,67,-99.99,,,0.00,weatherlink.com 1.10,2013-01-20 15:11:00,
2013-01-20 10:26:00,19.9,11.0,30.27,NW,323,7.0,-999.0,68,-99.99,,,0.00,weatherlink.com 1.10,2013-01-20 15:26:00,
2013-01-20 10:41:00,20.6,12.0,30.27,West,277,5.0,-999.0,68,-99.99,,,0.00,weatherlink.com 1.10,2013-01-20 15:41:00,
2013-01-20 10:56:00,20.9,11.0,30.27,WNW,288,5.0,-999.0,67,-99.99,,,0.00,weatherlink.com 1.10,2013-01-20 15:56:00,
2013-01-20 11:11:00,20.9,12.0,30.29,North,11,8.0,-999.0,69,-99.99,,,0.00,weatherlink.com 1.10,2013-01-20 16:11:00,
2013-01-20 11:26:00,21.4,12.0,30.28,North,355,4.0,-999.0,67,-99.99,,,0.00,weatherlink.com 1.10,2013-01-20 16:26:00,
2013-01-20 11:41:00,21.8,12.0,30.27,WNW,302,2.0,-999.0,65,-99.99,,,0.00,weatherlink.com 1.10,2013-01-20 16:41:00,
2013-01-20 11:56:00,21.8,12.0,30.28,North,355,4.0,-999.0,67,-99.99,,,0.00,weatherlink.com 1.10,2013-01-20 16:56:00,
2013-01-20 12:11:00,22.4,13.0,30.27,West,263,5.0,-999.0,66,-99.99,,,0.00,weatherlink.com 1.10,2013-01-20 17:11:00,
2013-01-20 12:26:00,22.8,14.0,30.26,WSW,242,5.0,-999.0,68,-99.99,,,0.00,weatherlink.com 1.10,2013-01-20 17:26:00,
2013-01-20 12:41:00,23.0,14.0,30.26,WNW,298,9.0,-999.0,69,-99.99,,,0.00,weatherlink.com 1.10,2013-01-20 17:41:00,
2013-01-20 12:56:00,23.1,13.0,30.24,West,262,4.0,-999.0,66,-99.99,,,0.00,weatherlink.com 1.10,2013-01-20 17:56:00,
2013-01-20 13:11:00,23.6,14.0,30.23,West,271,3.0,-999.0,68,-99.99,,,0.00,weatherlink.com 1.10,2013-01-20 18:11:00,
2013-01-20 13:26:00,23.4,14.0,30.23,West,274,5.0,-999.0,66,-99.99,,,0.00,weatherlink.com 1.10,2013-01-20 18:26:00,
2013-01-20 13:41:00,24.2,14.0,30.24,WNW,292,6.0,-999.0,66,-99.99,,,0.00,weatherlink.com 1.10,2013-01-20 18:41:00,
2013-01-20 13:56:00,24.3,14.0,30.23,West,276,5.0,-999.0,66,-99.99,,,0.00,weatherlink.com 1.10,2013-01-20 18:56:00,
2013-01-20 14:11:00,24.3,14.0,30.24,West,265,2.0,-999.0,65,-99.99,,,0.00,weatherlink.com 1.10,2013-01-20 19:11:00,
2013-01-20 14:26:00,24.1,13.0,30.23,North,5,3.0,-999.0,63,-99.99,,,0.00,weatherlink.com 1.10,2013-01-20 19:26:00,
2013-01-20 14:41:00,24.1,14.0,30.24,West,263,5.0,-999.0,66,-99.99,,,0.00,weatherlink.com 1.10,2013-01-20 19:41:00,
2013-01-20 14:56:00,24.2,15.0,30.24,WNW,298,6.0,-999.0,68,-99.99,,,0.00,weatherlink.com 1.10,2013-01-20 19:56:00,
2013-01-20 15:11:00,24.1,14.0,30.24,WNW,294,3.0,-999.0,66,-99.99,,,0.00,weatherlink.com 1.10,2013-01-20 20:11:00,
2013-01-20 15:26:00,24.2,15.0,30.24,WNW,300,7.0,-999.0,67,-99.99,,,0.00,weatherlink.com 1.10,2013-01-20 20:26:00,
2013-01-20 15:41:00,24.3,14.0,30.24,WNW,292,5.0,-999.0,66,-99.99,,,0.00,weatherlink.com 1.10,2013-01-20 20:41:00,
2013-01-20 15:56:00,24.4,14.0,30.24,WNW,290,5.0,-999.0,66,-99.99,,,0.00,weatherlink.com 1.10,2013-01-20 20:56:00,
2013-01-20 16:11:00,24.5,14.0,30.24,NW,312,3.0,-999.0,65,-99.99,,,0.00,weatherlink.com 1.10,2013-01-20 21:11:00,
2013-01-20 16:41:00,24.5,14.0,30.24,West,266,9.0,-999.0,65,-99.99,,,0.00,weatherlink.com 1.10,2013-01-20 21:41:00,
2013-01-20 17:11:00,24.5,15.0,30.25,WSW,258,6.0,-999.0,67,-99.99,,,0.00,weatherlink.com 1.10,2013-01-20 22:11:00,
2013-01-20 17:41:00,24.4,14.0,30.25,West,261,4.0,-999.0,65,-99.99,,,0.00,weatherlink.com 1.10,2013-01-20 22:41:00,
2013-01-20 17:56:00,24.2,14.0,30.25,WNW,289,5.0,-999.0,64,-99.99,,,0.00,weatherlink.com 1.10,2013-01-20 22:56:00,
2013-01-20 18:11:00,24.1,15.0,30.26,West,274,3.0,-999.0,67,-99.99,,,0.00,weatherlink.com 1.10,2013-01-20 23:11:00,
2013-01-20 18:41:00,23.9,14.0,30.26,WNW,285,4.0,-999.0,66,-99.99,,,0.00,weatherlink.com 1.10,2013-01-20 23:41:00,
2013-01-20 18:56:00,23.8,13.0,30.25,WNW,292,4.0,-999.0,64,-99.99,,,0.00,weatherlink.com 1.10,2013-01-20 23:56:00,
2013-01-20 19:26:00,23.8,14.0,30.25,NW,308,5.0,-999.0,66,-99.99,,,0.00,weatherlink.com 1.10,2013-01-21 00:26:00,
2013-01-20 19:41:00,23.7,14.0,30.25,WNW,288,5.0,-999.0,67,-99.99,,,0.00,weatherlink.com 1.10,2013-01-21 00:41:00,
2013-01-20 19:57:00,23.2,13.0,30.25,WNW,296,7.0,-999.0,66,-99.99,,,0.00,weatherlink.com 1.10,2013-01-21 00:57:00,
2013-01-20 20:11:00,23.1,14.0,30.25,WNW,284,6.0,-999.0,67,-99.99,,,0.00,weatherlink.com 1.10,2013-01-21 01:11:00,
2013-01-20 20:26:00,22.9,13.0,30.25,NW,313,5.0,-999.0,67,-99.99,,,0.00,weatherlink.com 1.10,2013-01-21 01:26:00,
2013-01-20 20:42:00,22.7,13.0,30.25,NW,319,4.0,-999.0,67,-99.99,,,0.00,weatherlink.com 1.10,2013-01-21 01:42:00,
2013-01-20 20:56:00,22.5,13.0,30.24,West,267,3.0,-999.0,67,-99.99,,,0.00,weatherlink.com 1.10,2013-01-21 01:56:00,
2013-01-20 21:11:00,22.3,13.0,30.25,WNW,298,4.0,-999.0,67,-99.99,,,0.00,weatherlink.com 1.10,2013-01-21 02:11:00,
2013-01-20 21:27:00,22.2,13.0,30.24,WNW,296,9.0,-999.0,68,-99.99,,,0.00,weatherlink.com 1.10,2013-01-21 02:27:00,
2013-01-20 21:56:00,21.9,13.0,30.24,NW,308,4.0,-999.0,68,-99.99,,,0.00,weatherlink.com 1.10,2013-01-21 02:56:00,
2013-01-20 22:11:00,21.7,13.0,30.23,WNW,294,6.0,-999.0,68,-99.99,,,0.00,weatherlink.com 1.10,2013-01-21 03:11:00,
2013-01-20 22:27:00,21.6,13.0,30.23,WNW,286,5.0,-999.0,69,-99.99,,,0.00,weatherlink.com 1.10,2013-01-21 03:27:00,
2013-01-20 22:41:00,21.3,13.0,30.23,West,281,5.0,-999.0,69,-99.99,,,0.00,weatherlink.com 1.10,2013-01-21 03:41:00,
2013-01-20 22:56:00,21.1,12.0,30.23,WNW,284,7.0,-999.0,69,-99.99,,,0.00,weatherlink.com 1.10,2013-01-21 03:56:00,
2013-01-20 23:11:00,20.9,12.0,30.24,West,271,4.0,-999.0,69,-99.99,,,0.00,weatherlink.com 1.10,2013-01-21 04:11:00,
2013-01-20 23:26:00,20.8,13.0,30.24,NW,306,6.0,-999.0,71,-99.99,,,0.00,weatherlink.com 1.10,2013-01-21 04:26:00,
2013-01-20 23:41:00,20.7,13.0,30.24,NW,306,5.0,-999.0,73,-99.99,,,0.00,weatherlink.com 1.10,2013-01-21 04:41:00,
2013-01-20 23:56:00,20.5,13.0,30.23,West,280,5.0,-999.0,73,-99.99,,,0.00,weatherlink.com 1.10,2013-01-21 04:56:00,